482  
ASCA42 TJSJ 241510  
RWRPR  
PUERTO RICO/U.S. VIRGIN ISLANDS HOURLY WEATHER ROUNDUP  
NATIONAL WEATHER SERVICE SAN JUAN PR  
1100 AM AST SUN SEP 24 2017  
 
PRZ001>002-007>008-010-241600-  
PUERTO RICO  
 
CITY SKY/WX TMP DP RH WIND PRES REMARKS
 
SAN JUAN LMM MOSUNNY 91 75 59 SE10 29.96F HX 102  
AGUADILLA PTSUNNY 84 75 74 NE7 29.98S HX 92  

 
 
VIZ001>002-241600-  
U.S. VIRGIN ISLANDS  
 
CITY SKY/WX TMP DP RH WIND PRES REMARKS
 

 
 
HOURLY WEATHER ROUNDUP FOR THE NEWS MEDIA  
 
CITY SKY/WX TMP DP RH WIND PRES REMARKS
 
ORLANDO MOSUNNY 85 73 67 E10 29.93R HX 91  
NEW YORK SUNNY 86 63 45 N9 30.08S  
NEWARK SUNNY 83 63 50 N10 30.07F  
CHICAGO SUNNY 84 63 49 SW3 30.09S  
HARTFORD SUNNY 78 63 59 NE6 30.05S  
BOSTON SUNNY 76 63 64 E5 30.06S  
DALLAS PTSUNNY 79 70 74 SE9 29.95R  
PHILADELPHIA SUNNY 84 63 49 N3 30.09S  
LOS ANGELES SUNNY 63 53 70 CALM 29.89R  
WASHINGTON DC MOSUNNY 81 64 56 N7 30.12F  
 
CLICK HERE TO GO TO PREVIOUS BULLETINS.

The Nexlab PR Page Main Text Page